Location: Dodgeville
(42.9600°N, 90.1300°W)
Time: 11:46:32
(UTC-05:00)

Uosat F - Visible Passes

Search period start: 21 May 2018 00:00
Search period end: 31 May 2018 00:00
Orbit: 750 x 761 km, 98.7° (Epoch: 21 May)

Date Brightness Start Highest point End Pass type
(mag) Time Alt. Az. Time Alt. Az. Time Alt. Az.
22 May 13.7 21:05:47 10° SW 21:09:11 18° W 21:12:35 10° NW visible
24 May 14.0 21:27:26 10° WSW 21:29:08 12° W 21:30:49 10° WNW visible
27 May 13.6 21:05:39 10° SW 21:09:04 18° W 21:12:32 10° NW visible
29 May 13.9 21:27:13 10° WSW 21:29:02 12° W 21:30:51 10° WNW visible
